Location: Caltech
(34.1382°N, 118.1253°W)
Time: 16:28:08
(UTC-08:00)

Iridium 62 - Visible Passes

Search period start: 11 December 2017 00:00
Search period end: 21 December 2017 00:00
Orbit: 776 x 779 km, 86.4° (Epoch: 11 December)

Date Brightness Start Highest point End Pass type
(mag) Time Alt. Az. Time Alt. Az. Time Alt. Az.
11 Dec 7.1 03:58:08 10° SSE 04:02:52 37° E 04:07:38 10° NNE visible
11 Dec 7.0 05:39:52 10° SW 05:43:39 20° W 05:47:27 10° NNW visible
12 Dec 8.2 03:25:57 10° SE 03:29:05 19° E 03:29:05 19° E visible
12 Dec 6.3 05:05:07 10° SSW 05:17:16 - N 05:09:21 37° W visible
12 Dec 8.6 17:20:47 10° NW 17:23:55 16° W 17:27:04 10° WSW visible
13 Dec 7.1 04:31:10 10° S 04:33:37 29° S 04:33:37 29° S visible
14 Dec 8.2 03:57:49 10° SSE 03:58:25 13° SSE 03:58:25 13° SSE visible
15 Dec 9.0 17:22:53 10° WNW 17:23:49 10° WNW 17:24:45 10° W visible
